DLH5248 YSSY-YSCB

Flight info

Callsign DLH5248
Flight time N/A
Altitude 16000
Route WOL H65 CB
Aircraft A339/H-SADE1E2E3GHIJ3J5M1P2RWXY/LB2D1

Departure

Time 2026-05-05 08:02
Airport Sydney Kingsford Smith International Airport (YSSY)

Arrival

Time N/A
Airport Canberra Airport (YSCB)
Time Latitude Longitude Altitude Speed Heading
2026-05-05 07:43 -33.94327 151.18122 31 ft 0 kts 158°
2026-05-05 07:47 -33.94325 151.18121 31 ft 0 kts 158°
2026-05-05 07:47 -33.94322 151.18120 30 ft 0 kts 158°
2026-05-05 07:47 -33.94320 151.18119 30 ft 0 kts 158°
2026-05-05 07:48 -33.94313 151.18117 31 ft 1 kts 143°
2026-05-05 07:48 -33.94305 151.18108 30 ft 2 kts 162°
2026-05-05 07:48 -33.94292 151.18103 30 ft 2 kts 163°
2026-05-05 07:48 -33.94280 151.18098 30 ft 3 kts 166°
2026-05-05 07:49 -33.94262 151.18090 30 ft 4 kts 181°
2026-05-05 07:49 -33.94246 151.18092 28 ft 0 kts 234°
2026-05-05 07:51 -33.94247 151.18090 29 ft 2 kts 234°
2026-05-05 07:52 -33.94254 151.18051 29 ft 9 kts 261°
2026-05-05 07:52 -33.94262 151.17993 29 ft 2 kts 258°
2026-05-05 07:52 -33.94266 151.17973 31 ft 6 kts 256°
2026-05-05 07:52 -33.94269 151.17897 30 ft 9 kts 279°
2026-05-05 07:53 -33.94269 151.17894 30 ft 1 kts 279°
2026-05-05 07:53 -33.94258 151.17885 30 ft 3 kts 317°
2026-05-05 07:53 -33.94219 151.17866 30 ft 9 kts 345°
2026-05-05 07:53 -33.94133 151.17840 30 ft 17 kts 347°
2026-05-05 07:54 -33.94084 151.17826 29 ft 4 kts 342°
2026-05-05 07:54 -33.94053 151.17781 29 ft 10 kts 292°
2026-05-05 07:54 -33.94036 151.17677 28 ft 3 kts 294°
2026-05-05 07:54 -33.94026 151.17662 27 ft 6 kts 308°
2026-05-05 07:55 -33.93963 151.17629 30 ft 14 kts 344°
2026-05-05 07:55 -33.93845 151.17596 26 ft 21 kts 347°
2026-05-05 07:55 -33.93680 151.17553 24 ft 27 kts 347°
2026-05-05 07:55 -33.93501 151.17507 27 ft 21 kts 349°
2026-05-05 07:56 -33.93350 151.17494 27 ft 18 kts 346°
2026-05-05 07:56 -33.93202 151.17457 27 ft 25 kts 348°
2026-05-05 07:56 -33.93041 151.17415 29 ft 16 kts 348°
2026-05-05 07:56 -33.92977 151.17367 28 ft 14 kts 307°
2026-05-05 07:57 -33.92965 151.17325 26 ft 0 kts 285°
2026-05-05 08:00 -33.92963 151.17317 26 ft 6 kts 285°
2026-05-05 08:00 -33.92984 151.17206 26 ft 20 kts 233°
2026-05-05 08:01 -33.93049 151.17193 29 ft 0 kts 173°
2026-05-05 08:01 -33.93051 151.17194 30 ft 0 kts 171°
2026-05-05 08:02 -33.93288 151.17253 27 ft 81 kts 167°
2026-05-05 08:02 -33.94131 151.17472 46 ft 160 kts 169°
2026-05-05 08:02 -33.95267 151.17781 796 ft 172 kts 166°
2026-05-05 08:02 -33.96488 151.17986 1632 ft 184 kts 182°
2026-05-05 08:03 -33.97784 151.17761 2391 ft 191 kts 190°
2026-05-05 08:03 -33.99128 151.17488 3079 ft 204 kts 187°
2026-05-05 08:03 -34.00618 151.17396 3518 ft 224 kts 181°
2026-05-05 08:03 -34.02255 151.17440 3870 ft 247 kts 176°
2026-05-05 08:04 -34.03981 151.17840 4448 ft 258 kts 166°
2026-05-05 08:04 -34.05704 151.18489 5191 ft 261 kts 165°
2026-05-05 08:04 -34.07443 151.19108 5831 ft 267 kts 166°
2026-05-05 08:04 -34.09251 151.19722 6468 ft 273 kts 167°
2026-05-05 08:05 -34.11098 151.20338 7145 ft 277 kts 167°
2026-05-05 08:05 -34.12967 151.20956 7866 ft 280 kts 167°
2026-05-05 08:05 -34.14839 151.21577 8700 ft 279 kts 167°
2026-05-05 08:05 -34.16722 151.22205 9407 ft 284 kts 167°
2026-05-05 08:06 -34.18670 151.22669 9854 ft 284 kts 181°
2026-05-05 08:06 -34.20587 151.22252 9990 ft 280 kts 205°
2026-05-05 08:06 -34.22164 151.20923 10019 ft 279 kts 229°
2026-05-05 08:06 -34.23443 151.19042 10017 ft 297 kts 233°
2026-05-05 08:07 -34.24697 151.17108 10016 ft 283 kts 232°
2026-05-05 08:07 -34.25895 151.15309 10020 ft 275 kts 231°
2026-05-05 08:07 -34.27158 151.13466 10022 ft 297 kts 231°
2026-05-05 08:07 -34.28492 151.11560 10020 ft 291 kts 230°
2026-05-05 08:08 -34.29759 151.09774 10025 ft 270 kts 230°
2026-05-05 08:08 -34.31007 151.08018 10026 ft 277 kts 230°
2026-05-05 08:08 -34.32243 151.06278 10032 ft 276 kts 230°
2026-05-05 08:08 -34.33491 151.04520 10026 ft 275 kts 230°
2026-05-05 08:09 -34.34744 151.02754 10023 ft 276 kts 230°
2026-05-05 08:09 -34.36001 151.00981 10199 ft 279 kts 230°
2026-05-05 08:09 -34.37319 150.99170 10475 ft 297 kts 226°
2026-05-05 08:09 -34.38881 150.97462 10887 ft 310 kts 222°
2026-05-05 08:10 -34.40545 150.95683 11166 ft 325 kts 223°
2026-05-05 08:10 -34.42246 150.93847 11778 ft 329 kts 223°
2026-05-05 08:10 -34.43935 150.92016 12431 ft 331 kts 223°
2026-05-05 08:10 -34.45658 150.90147 13076 ft 334 kts 223°
2026-05-05 08:11 -34.47396 150.88259 13719 ft 337 kts 223°
2026-05-05 08:11 -34.49154 150.86350 14321 ft 340 kts 223°
2026-05-05 08:11 -34.50925 150.84427 14914 ft 342 kts 223°
2026-05-05 08:11 -34.52706 150.82491 15469 ft 346 kts 224°
2026-05-05 08:12 -34.54507 150.80531 15948 ft 349 kts 224°
2026-05-05 08:12 -34.56200 150.78424 16124 ft 349 kts 231°
2026-05-05 08:12 -34.57688 150.76047 16173 ft 360 kts 236°
2026-05-05 08:12 -34.59153 150.73578 16177 ft 360 kts 235°
2026-05-05 08:13 -34.60629 150.71117 16178 ft 360 kts 235°
2026-05-05 08:13 -34.62088 150.68697 16179 ft 360 kts 234°
2026-05-05 08:13 -34.63587 150.66211 16173 ft 360 kts 234°
2026-05-05 08:13 -34.65039 150.63801 16173 ft 360 kts 234°
2026-05-05 08:14 -34.66519 150.61344 16185 ft 361 kts 234°
2026-05-05 08:14 -34.67996 150.58885 16181 ft 360 kts 234°
2026-05-05 08:14 -34.69483 150.56411 16183 ft 361 kts 235°
2026-05-05 08:14 -34.70960 150.53950 16180 ft 361 kts 235°
2026-05-05 08:15 -34.73242 150.50144 16190 ft 361 kts 235°
2026-05-05 08:15 -34.75165 150.46934 16190 ft 360 kts 235°
2026-05-05 08:15 -34.76621 150.44502 16048 ft 357 kts 235°
2026-05-05 08:15 -34.78081 150.42060 15578 ft 356 kts 234°
2026-05-05 08:16 -34.79530 150.39634 14999 ft 352 kts 234°
2026-05-05 08:16 -34.80968 150.37226 14297 ft 350 kts 234°
2026-05-05 08:16 -34.82394 150.34836 13521 ft 348 kts 234°
2026-05-05 08:16 -34.83811 150.32461 12759 ft 345 kts 234°
2026-05-05 08:17 -34.85220 150.30099 12010 ft 342 kts 234°
2026-05-05 08:17 -34.86592 150.27799 11301 ft 339 kts 234°
2026-05-05 08:17 -34.87974 150.25480 10600 ft 336 kts 234°
2026-05-05 08:17 -34.89331 150.23199 10201 ft 323 kts 234°
2026-05-05 08:18 -34.90612 150.21044 9999 ft 304 kts 234°
2026-05-05 08:18 -34.91814 150.19020 9832 ft 285 kts 234°
2026-05-05 08:18 -34.92953 150.17101 9408 ft 276 kts 234°
2026-05-05 08:18 -34.94069 150.15218 8841 ft 273 kts 234°
2026-05-05 08:19 -34.95186 150.13334 8174 ft 274 kts 233°
2026-05-05 08:19 -34.96296 150.11458 7572 ft 276 kts 233°
2026-05-05 08:19 -34.97415 150.09560 7123 ft 272 kts 232°
2026-05-05 08:19 -34.98520 150.07693 6956 ft 276 kts 232°
2026-05-05 08:20 -34.99634 150.05819 6825 ft 276 kts 232°
2026-05-05 08:20 -35.00758 150.03921 6711 ft 275 kts 232°
2026-05-05 08:20 -35.01877 150.02026 6589 ft 276 kts 232°
2026-05-05 08:20 -35.03000 150.00129 6527 ft 275 kts 232°
2026-05-05 08:21 -35.04120 149.98236 6522 ft 275 kts 232°
2026-05-05 08:21 -35.05685 149.95658 6519 ft 275 kts 227°
2026-05-05 08:21 -35.08321 149.92284 6524 ft 274 kts 224°
2026-05-05 08:21 -35.10954 149.88910 6526 ft 274 kts 225°
2026-05-05 08:22 -35.13571 149.85531 6520 ft 271 kts 224°
2026-05-05 08:22 -35.16164 149.82181 6528 ft 271 kts 224°
2026-05-05 08:22 -35.18769 149.78815 6527 ft 272 kts 224°
2026-05-05 08:22 -35.21383 149.75435 6525 ft 273 kts 224°
2026-05-05 08:23 -35.23948 149.72108 6524 ft 272 kts 224°
2026-05-05 08:23 -35.26543 149.68740 6521 ft 272 kts 224°
2026-05-05 08:23 -35.29138 149.65370 6526 ft 271 kts 224°
2026-05-05 08:23 -35.31723 149.62017 6524 ft 270 kts 224°
2026-05-05 08:24 -35.34299 149.58664 6518 ft 271 kts 224°
2026-05-05 08:24 -35.36884 149.55297 6508 ft 271 kts 224°
2026-05-05 08:24 -35.39463 149.51931 6513 ft 270 kts 224°
2026-05-05 08:24 -35.42041 149.48579 6514 ft 270 kts 224°
2026-05-05 08:25 -35.44613 149.45218 6512 ft 271 kts 224°
2026-05-05 08:25 -35.47158 149.41895 6508 ft 271 kts 225°
2026-05-05 08:25 -35.49767 149.38477 6505 ft 270 kts 225°
2026-05-05 08:25 -35.52299 149.35161 6504 ft 270 kts 225°
2026-05-05 08:26 -35.54788 149.31707 6507 ft 273 kts 236°
2026-05-05 08:26 -35.55751 149.27208 6512 ft 277 kts 261°
2026-05-05 08:26 -35.55980 149.22512 6457 ft 279 kts 281°
2026-05-05 08:26 -35.53567 149.19335 6089 ft 244 kts 347°
2026-05-05 08:27 -35.50480 149.19395 5613 ft 204 kts
2026-05-05 08:27 -35.47825 149.19453 5093 ft 178 kts 360°
2026-05-05 08:27 -35.45491 149.19447 4659 ft 155 kts
2026-05-05 08:27 -35.43359 149.19446 4254 ft 148 kts
2026-05-05 08:28 -35.41328 149.19445 3865 ft 144 kts 360°
2026-05-05 08:28 -35.39322 149.19446 3443 ft 132 kts
2026-05-05 08:28 -35.37519 149.19436 3183 ft 136 kts
2026-05-05 08:28 -35.35568 149.19464 3041 ft 139 kts 356°
2026-05-05 08:29 -35.33699 149.19420 2588 ft 140 kts
2026-05-05 08:29 -35.31762 149.19421 2403 ft 148 kts 359°
2026-05-05 08:29 -35.29155 149.19185 3285 ft 220 kts 351°
2026-05-05 08:30 -35.23084 149.17606 4189 ft 230 kts 340°
2026-05-05 08:30 -35.20149 149.16615 4087 ft 219 kts 347°
2026-05-05 08:30 -35.17410 149.17141 5095 ft 231 kts 27°
2026-05-05 08:30 -35.15897 149.17731 5886 ft 235 kts
2026-05-05 08:31 -35.14262 149.17410 6319 ft 251 kts 334°
2026-05-05 08:31 -35.12971 149.16008 6592 ft 248 kts 301°
2026-05-05 08:31 -35.12148 149.14155 6496 ft 246 kts 297°
2026-05-05 08:31 -35.10976 149.12721 6997 ft 245 kts 332°
2026-05-05 08:32 -35.09230 149.12351 7201 ft 272 kts 14°
2026-05-05 08:32 -35.07624 149.13598 7459 ft 287 kts 57°
2026-05-05 08:32 -35.07345 149.15820 8612 ft 259 kts 104°
2026-05-05 08:32 -35.08149 149.17830 8960 ft 279 kts 130°
2026-05-05 08:33 -35.09665 149.19473 8613 ft 302 kts 153°
2026-05-05 08:33 -35.11627 149.20028 8319 ft 284 kts 181°
2026-05-05 08:33 -35.13550 149.19850 7822 ft 268 kts 185°
2026-05-05 08:33 -35.15309 149.19680 7140 ft 242 kts 182°
2026-05-05 08:34 -35.16953 149.19526 6240 ft 233 kts 184°
2026-05-05 08:34 -35.18532 149.19407 5439 ft 220 kts 179°
2026-05-05 08:34 -35.20044 149.19440 4820 ft 217 kts 178°
2026-05-05 08:34 -35.21583 149.19530 4287 ft 220 kts 179°
2026-05-05 08:35 -35.23042 149.19513 3957 ft 206 kts 186°
2026-05-05 08:35 -35.24413 149.19464 3640 ft 191 kts 185°
2026-05-05 08:35 -35.25701 149.19430 3171 ft 179 kts 178°
2026-05-05 08:35 -35.26933 149.19459 2649 ft 176 kts 178°
2026-05-05 08:36 -35.28132 149.19441 2258 ft 168 kts 178°
2026-05-05 08:36 -35.29264 149.19447 1945 ft 158 kts 175°
2026-05-05 08:36 -35.30292 149.19441 1876 ft 115 kts 182°
2026-05-05 08:36 -35.30916 149.19458 1880 ft 66 kts 179°
2026-05-05 08:37 -35.31186 149.19457 1878 ft 56 kts 177°